Location: Auttagershofen
(48.1940°N, 10.0237°E)
Time: 22:53:07
(UTC+00:00)

Lacrosse 5 rocket - Pass Details

Date: 18 April 2026
Orbit: 390 x 471 km, 57.0° (Epoch: 19 May)

Event Time Altitude Azimuth Distance (km) Brightness Sun altitude
Rises 21:28:48 0° 305° (NW) 2,290 5.5 -25.9°
Reaches altitude 10° 21:31:12 10° 323° (NW) 1,432 4.4 -26.1°
Enters shadow 21:33:07 20° 359° (N) 984 3.2 -26.2°
